Regional Weather Roundup
Issued by NWS

Home | Current Version | Previous Version | Graphics & Text | Print | Product List | Glossary On
Versions: 1 2 3 4 5 6 7 8 9 10 11 12 13 14 15 16 17 18 19 20 21 22 23 24 25 26 27
000
ASUS45 KBOU 231707
RWRCO

WEATHER ROUNDUP FOR COLORADO
NATIONAL WEATHER SERVICE DENVER/BOULDER CO
1100 AM MDT MON OCT 23 2017

NOTE: "FAIR" INDICATES FEW OR NO CLOUDS BELOW 12000 FEET WITH NO
SIGNIFICANT WEATHER AND/OR OBSTRUCTIONS TO VISIBILITY.

COZ001>005-013-030-031-231800-
...NORTHWEST COLORADO...

CITY           SKY/WX    TMP DP  RH WIND       PRES   REMARKS
CRAIG          FAIR      56  30  37 W12       30.51F
HAYDEN         FAIR      52  29  41 W16G26    30.52F
MEEKER         FAIR      52  30  43 SW3       30.53S
RABBIT EARS PA CLOUDY    32  30  93 W14G25    30.56R WCI  22
STEAMBOAT SPGS PTSUNNY   50  30  45 W20G26    30.51R
WALDEN         NOT AVBL
$$

COZ006>008-011-231800-
...WEST CENTRAL VALLEYS...

CITY           SKY/WX    TMP DP  RH WIND       PRES   REMARKS
GRAND JUNCTION FAIR      52  28  39 SW3       30.49F
MONTROSE       FAIR      53  25  33 SW3       30.54R
EAGLE          FAIR      54  25  32 CALM      30.52F
RIFLE          FAIR      50  30  46 CALM      30.51F
DELTA          FAIR      52  24  33 CALM      30.52S
NUCLA          NOT AVBL
$$

COZ017>023-064>068-231800-
...SOUTHWEST COLORADO...

CITY           SKY/WX    TMP DP  RH WIND       PRES   REMARKS
DURANGO        FAIR      51  23  33 E8        30.46S
CORTEZ         FAIR      64  24  21 NW10G16   30.45F
PAGOSA SPRINGS FAIR      53  18  25 S6        30.49S
TELLURIDE      FAIR      51  24  34 NW10G16   30.61S
WOLF CREEK PAS FAIR      39  21  48 NW7       30.70S
$$

COZ009-010-012-014-032>034-037-058>063-231800-
...CENTRAL COLORADO...

CITY           SKY/WX    TMP DP  RH WIND       PRES   REMARKS
ASPEN          FAIR      52  27  38 VRB5      30.53F
BUENA VISTA    FAIR      56  22  27 N12       30.45F
COPPER MTN     FAIR      36  23  60 W30G38    30.62F
BERTHOUD PASS  FAIR      27  16  63 NW54G70   30.49F WCI   6
COTTONWOOD PAS   N/A     52  21  30 SW21G35   30.52F
GUNNISON       FAIR      53  27  36 VRB5      30.52F
KREMMLING      FAIR      55  28  35 NW12      30.52S
LEADVILLE      FAIR      43  23  45 NW20G26   30.56F
MONARCH PASS   FAIR      34  23  64 W28G33    30.72F WCI  20
SALIDA         FAIR      59  25  27 CALM      30.52S
SUNLIGHT       FAIR      36  23  60 SW5       30.69R
WILKERSON PASS FAIR      41  21  45 W7G20     30.58F
$$

COZ069>075-231800-
...SAN LUIS VALLEY/SANGRE DE CRISTO MOUNTAINS...

CITY           SKY/WX    TMP DP  RH WIND       PRES   REMARKS
ALAMOSA        FAIR      55  22  27 CALM      30.49F
DEL NORTE      FAIR      55  25  31 CALM      30.50F
LA VETA PASS   FAIR      46  25  42 S12G25    30.67R
SAGUACHE       FAIR      55  28  35 NW10      30.49F
$$

COZ035-036-038>040-231800-
...NORTHERN COLORADO FRONT RANGE...

CITY           SKY/WX    TMP DP  RH WIND       PRES   REMARKS
DENVER INTL AP PTSUNNY   43  29  57 NE10      30.46F
DMNS CITY PARK   N/A     41  29  61 E13G21    30.47R
AURORA         PTSUNNY   43  30  60 NE10      30.47F
FRONT RANGE AP PTSUNNY   45  30  57 N8        30.47F
ERIE MUNI ARPT CLOUDY    42  31  65 SE8       30.52S
BOULDER MUN AP CLOUDY    43  32  65 E8        30.46R
CENTENNIAL     CLOUDY    39  28  64 E9        30.46F
BROOMFIELD     CLOUDY    41  30  65 E12       30.47S
FORT COLLINS   CLOUDY    44  31  60 S8        30.46S
LONGMONT       NOT AVBL
$$

COZ041-046-047-076>085-087-088-231800-
...PIKES PEAK/PALMER DIVIDE AND SOUTHERN FOOTHILLS...

CITY           SKY/WX    TMP DP  RH WIND       PRES   REMARKS
COLO. SPRINGS  PTSUNNY   49  33  54 N12       30.43F
A. F. ACADEMY  MOSUNNY   43  31  63 N18       30.40F
SCHRIEVER AFB  FAIR      43  31  62 NE18      30.42S
CHEYENNE MTN   FAIR      42  33  68 NE6       30.38R
ELLICOTT         N/A    N/A N/A N/A NE17G24   30.42S
FALCON         FAIR      41  31  67 N20G30    30.42F
FORT CARSON    FAIR      48  33  54 N8        30.41F
LIMON          FAIR      46  25  43 N21G30    30.43F
MONUMENT HILL  CLOUDY    34  30  86 NE9       30.47F WCI  26
CANON CITY     FAIR      55  34  44 E20       30.44R
WALSENBURG     FAIR      55  34  44 E12G21    30.45R
TRINIDAD       FAIR      56  30  37 NE17      30.42R
$$

COZ042>045-048>051-090-091-231800-
...NORTHEAST COLORADO...

CITY           SKY/WX    TMP DP  RH WIND       PRES   REMARKS
GREELEY ARPT   PTSUNNY   51  26  37 N16       30.45F
AKRON          CLOUDY    49  21  33 N18G29    30.41R
BURLINGTON     FAIR      54  23  30 N23G37    30.37R
WRAY           NOT AVBL
YUMA           NOT AVBL
STERLING       NOT AVBL
HOLYOKE        FAIR      55  21  26 N29G40    30.35S
FORT MORGAN    CLOUDY    50  18  28 N20       30.45R
$$

COZ086-089-092>099-231800-
...SOUTHEAST COLORADO...

CITY           SKY/WX    TMP DP  RH WIND       PRES   REMARKS
PUEBLO         FAIR      53  34  48 E13       30.44R
LA JUNTA       FAIR      56  32  40 N20       30.44R
LAMAR          FAIR      57  29  34 N21G26    30.40R
SPRINGFIELD    NOT AVBL
$$




USA.gov is the U.S. government's official web portal to all federal, state and local government web resources and services.